GFSSW_925_spd_000.txt.gz
Wind_Speed
15 16 17 18 16 16 17 18 19 20 20 20 20 19 18 19 18 17 9 17 16 23 20 4 10 11 7 4 5 3 3 3 5 3 7 1 3 1 1 6 1 1 4 2 17
15 16 17 17 17 17 18 19 19 20 20 20 20 19 18 17 17 22 23 23 23 17 11 13 6 10 2 4 3 4 3 7 7 6 6 4 5 7 3 3 1 2 4 12 13
18 18 18 19 18 18 20 21 21 21 20 19 20 18 16 12 4 9 16 21 30 22 17 7 8 6 3 3 4 5 5 7 8 8 7 5 2 4 6 4 7 9 8 6 8
19 19 20 21 20 21 21 21 23 23 21 20 19 18 15 1 6 2 7 16 18 27 17 7 4 4 3 5 5 3 9 6 7 8 7 6 6 5 5 7 5 8 9 7 7
19 20 21 22 23 23 23 24 24 24 24 22 19 16 6 1 10 20 17 21 8 23 22 7 6 4 4 4 5 5 5 1 4 7 4 7 5 4 8 4 5 9 8 9 7
21 22 22 21 22 24 24 24 25 25 24 23 22 15 2 7 15 20 24 19 8 21 12 11 8 9 4 5 6 7 5 2 2 1 2 6 1 2 6 6 7 9 9 7 8
22 22 22 22 24 25 25 25 25 26 25 25 22 6 4 18 10 7 1 4 10 19 6 18 10 6 4 5 2 3 2 5 1 4 3 4 3 9 4 7 9 9 6 7 7
23 22 23 23 24 26 27 26 25 26 28 22 11 7 8 12 13 27 27 29 19 14 18 3 11 3 2 3 4 3 4 3 4 5 3 6 10 6 9 11 10 8 7 7 6
22 23 24 25 26 27 27 26 24 24 14 3 7 5 9 6 9 23 25 11 7 10 8 6 7 5 2 2 3 7 3 4 6 7 3 5 9 3 6 11 9 8 7 7 6
22 21 23 24 25 27 27 25 17 2 5 6 1 1 8 5 7 6 16 15 4 6 4 4 4 3 2 2 5 4 3 3 4 3 4 3 13 6 6 10 9 9 8 7 7
23 22 21 21 22 23 25 8 3 2 4 8 4 5 6 7 5 3 8 12 4 5 7 4 4 8 9 7 5 4 3 5 4 5 5 7 9 16 6 6 8 9 9 8 8
22 20 20 20 21 23 11 1 5 4 8 11 17 14 30 9 6 5 16 7 6 6 7 4 12 7 7 4 4 3 3 5 5 3 6 8 10 8 7 9 11 13 10 9 6
24 23 21 20 23 7 3 3 10 9 4 7 10 10 9 12 9 9 7 5 6 7 7 9 4 7 7 5 4 5 3 5 7 2 3 1 7 5 5 3 4 6 7 6 10
26 22 18 18 11 11 1 7 10 3 4 7 7 9 10 11 6 12 13 6 2 14 9 7 6 8 5 5 8 4 8 6 4 2 5 4 5 6 6 6 7 9 10 12 10
23 21 14 8 13 6 6 16 16 4 5 6 6 1 8 14 10 8 12 2 10 7 7 10 8 6 5 10 7 10 3 5 3 4 2 2 2 6 2 6 10 12 13 12 11
22 21 14 6 8 12 16 17 1 4 11 5 6 8 7 6 7 7 7 4 6 7 3 10 5 9 12 8 9 3 3 6 4 4 1 7 7 5 5 8 7 4 12 12 12
23 21 18 12 3 4 17 3 3 7 2 6 7 7 11 6 8 10 13 13 11 8 11 4 5 4 5 5 3 5 6 4 4 3 6 3 3 8 8 10 9 8 14 14 13
25 20 20 19 14 10 5 3 9 9 12 3 5 6 9 8 11 9 8 15 14 7 6 10 9 10 4 8 10 7 9 5 6 3 5 3 5 6 7 6 8 7 10 13 13
25 22 17 21 17 8 2 8 13 7 13 4 3 5 5 8 7 10 18 16 13 13 17 8 8 3 7 5 11 5 4 6 4 1 2 3 7 10 4 4 4 7 11 14 14
23 13 20 22 21 11 2 25 8 6 5 24 9 6 10 7 9 17 14 16 13 9 6 7 2 5 7 5 1 9 6 2 2 2 4 4 4 6 9 5 5 6 9 11 10
13 4 12 27 25 5 8 14 21 8 3 15 23 7 7 8 10 8 7 9 21 10 12 6 6 4 6 7 9 3 3 4 4 4 5 3 6 6 6 9 8 9 10 14 16
6 4 23 38 7 5 16 8 7 23 4 3 3 8 8 7 9 11 12 12 12 15 13 8 7 6 8 3 5 7 10 9 5 5 3 4 8 6 7 9 6 8 9 8 9
2 2 16 29 10 12 15 11 10 9 6 2 3 4 4 6 4 5 6 6 9 17 12 8 3 3 5 3 1 4 5 5 5 4 7 5 6 3 4 3 4 7 9 8 9
3 5 3 6 4 14 16 17 7 16 12 1 3 4 2 5 1 4 2 3 2 6 10 15 6 11 15 5 6 5 5 6 7 5 5 6 4 5 2 4 1 5 9 9 10
3 2 2 4 8 11 6 3 21 8 9 3 3 4 3 4 4 4 2 2 4 4 4 7 8 6 5 10 11 13 8 12 9 8 8 8 9 7 4 4 6 8 8 11 10
3 2 2 2 11 15 8 4 16 20 3 11 4 3 5 4 4 3 3 2 2 7 4 0 4 8 7 9 13 11 16 15 17 3 2 6 5 7 4 4 4 9 13 14 16
2 0 3 1 4 9 12 13 5 2 2 4 4 2 5 1 5 6 6 4 3 1 2 1 4 4 5 5 7 16 15 13 8 5 9 7 9 7 5 8 8 6 13 15 15

GFSSW_925_spd_006.txt.gz
Wind_Speed
15 16 15 15 15 15 16 16 16 16 16 17 18 19 18 17 17 11 17 12 15 10 13 14 11 13 14 12 10 6 11 12 12 13 12 4 11 4 2 8 7 8 7 2 8
18 18 17 18 17 16 16 16 16 17 17 18 18 18 19 18 16 22 21 18 19 24 20 18 15 15 11 14 8 10 12 16 8 11 14 16 9 13 7 8 10 9 5 6 11
17 17 19 19 19 18 18 17 16 16 16 15 14 16 15 13 12 7 6 17 24 26 23 22 15 16 16 12 13 14 15 14 14 14 16 18 13 10 11 13 10 9 11 12 12
17 17 16 16 17 19 20 20 18 17 17 17 16 16 15 4 7 4 15 10 15 23 21 21 17 18 17 17 15 14 16 16 16 12 12 8 7 9 12 13 5 6 4 13 14
20 19 19 20 19 20 20 20 20 18 18 17 16 15 6 8 13 7 9 2 7 22 26 21 20 21 19 17 15 15 17 14 13 12 9 4 9 9 11 7 6 7 10 14 12
19 20 19 19 20 20 21 22 21 20 19 17 16 13 5 17 11 12 17 14 13 19 25 27 20 21 16 18 15 13 11 13 12 12 6 8 4 4 7 2 9 10 12 13 12
18 18 18 19 20 22 22 22 22 21 19 18 16 6 10 23 6 4 6 8 13 20 16 30 27 15 17 13 15 12 15 14 13 11 6 6 10 9 9 4 9 13 11 12 11
18 18 19 20 22 23 25 25 22 21 20 18 13 7 11 13 18 28 26 19 6 15 17 18 24 17 12 7 9 13 14 15 12 9 6 6 9 9 7 9 13 13 13 12 13
18 16 18 18 20 23 25 25 23 20 16 9 6 9 13 5 16 26 22 22 23 19 12 10 22 17 14 15 15 16 15 18 10 10 5 11 13 8 8 10 13 12 14 13 13
18 18 16 18 21 24 28 22 9 4 5 7 6 6 12 11 12 9 14 23 10 16 12 14 13 17 18 16 16 16 13 12 13 9 9 12 14 14 14 14 12 13 14 14 14
20 20 18 18 19 23 27 7 5 7 11 12 10 16 3 5 7 11 10 18 16 19 17 21 19 22 27 22 17 14 12 14 12 7 10 16 15 15 15 17 13 14 14 15 15
19 19 17 15 16 19 16 6 2 4 10 19 25 20 25 5 6 14 16 14 19 22 22 16 23 25 22 19 17 15 17 17 11 10 9 15 17 19 17 16 13 13 14 16 15
18 17 17 16 14 15 8 7 2 4 8 14 22 24 25 20 12 15 21 21 23 26 27 23 21 23 20 16 18 19 18 15 12 12 12 16 18 12 8 9 10 11 11 14 17
17 18 16 12 10 6 6 7 3 4 7 11 11 12 28 22 18 27 24 19 19 27 27 22 21 20 18 23 21 20 16 15 14 12 12 4 14 14 10 11 11 11 12 13 16
17 14 13 11 8 5 4 1 6 4 7 5 13 9 17 28 10 27 26 21 20 19 25 25 23 23 22 22 20 17 13 13 15 12 12 16 8 10 6 9 7 6 11 12 15
17 14 13 9 14 14 7 7 4 7 13 9 11 17 19 28 17 13 27 19 17 20 21 23 15 19 20 15 13 15 8 10 8 11 12 15 10 9 3 4 5 5 2 9 14
17 14 13 9 4 12 8 8 8 14 7 12 12 18 24 18 27 18 30 30 19 22 22 25 20 19 17 18 13 17 13 9 10 9 11 2 6 10 10 8 9 9 5 8 15
16 15 16 17 16 8 9 10 17 22 28 8 14 20 23 19 24 25 24 28 29 25 18 22 24 25 18 19 17 20 18 11 10 11 10 6 6 4 2 6 6 5 4 10 16
13 15 17 17 19 17 8 16 19 26 16 27 10 20 18 21 12 24 27 30 33 29 19 23 24 28 23 21 20 14 16 17 15 13 8 11 5 11 7 7 4 2 5 12 16
14 13 18 20 19 12 7 31 21 19 6 18 30 19 23 24 16 24 24 22 32 33 25 11 18 15 23 19 22 20 16 10 10 14 13 8 7 7 3 5 4 6 8 13 16
13 4 8 19 20 5 12 31 28 25 7 10 20 28 23 21 24 27 18 13 33 34 27 15 12 22 17 22 22 13 16 14 13 13 12 9 6 5 4 3 3 7 11 15 17
8 4 9 25 9 3 10 32 32 21 21 21 11 19 23 21 23 24 24 23 23 29 35 30 13 14 23 21 22 22 22 21 11 16 10 10 10 3 5 1 2 8 13 17 18
3 4 5 21 9 12 13 27 26 24 17 14 17 11 20 21 17 25 19 14 17 28 27 25 15 15 15 11 15 23 21 21 20 15 16 12 9 6 5 6 4 10 14 15 18
3 2 4 3 7 18 24 19 20 19 22 21 19 19 18 19 17 13 20 18 17 28 14 22 18 27 22 21 19 21 21 23 22 16 16 16 16 9 8 9 8 9 13 16 19
3 4 2 4 6 11 9 10 12 19 21 19 13 19 12 15 22 16 17 17 16 22 23 20 25 25 25 21 24 21 23 24 24 23 19 16 17 15 10 9 9 11 13 16 19
3 2 2 2 3 16 14 16 21 17 18 25 22 23 5 11 10 22 14 16 21 19 25 21 15 21 21 26 20 22 24 24 25 25 22 19 17 11 11 6 8 12 15 18 21
2 5 1 1 3 2 3 9 18 15 20 23 25 15 17 6 9 9 8 3 0 18 22 22 17 15 21 20 21 22 26 25 23 25 22 22 19 15 11 12 12 13 16 18 19

GFSSW_925_spd_009.txt.gz
Wind_Speed
16 17 18 18 17 16 17 16 17 17 17 17 18 18 18 20 19 11 17 13 17 12 17 19 18 18 20 17 20 13 13 15 19 16 10 10 13 6 4 10 7 4 7 5 6
17 17 17 19 19 18 17 17 17 18 18 18 19 20 19 21 20 25 29 21 21 23 21 24 20 20 16 19 17 15 14 21 15 14 12 16 17 17 6 10 9 8 7 5 8
18 18 18 18 18 19 19 19 19 19 20 19 19 20 18 19 18 18 5 22 26 27 30 26 22 20 21 20 20 20 18 18 18 15 14 15 17 9 9 10 10 3 7 14 13
18 18 19 19 19 20 20 20 21 20 20 19 19 19 17 10 8 6 3 8 22 23 29 30 23 23 23 24 21 21 19 20 16 18 15 13 10 9 8 11 4 6 4 8 12
18 19 19 19 19 19 20 20 21 20 20 19 18 15 9 11 18 15 7 6 10 23 30 26 25 26 26 25 22 19 18 20 21 17 15 14 10 12 12 7 4 5 7 10 11
18 18 18 19 19 19 19 20 20 20 20 19 17 13 7 20 14 18 15 11 12 19 24 26 22 23 24 24 21 21 25 20 17 17 16 11 16 5 11 2 3 9 11 9 10
19 18 18 20 21 23 22 22 22 21 20 19 16 9 16 24 9 11 14 20 22 21 17 26 29 22 22 24 21 21 19 20 18 18 17 12 17 16 12 9 9 8 11 13 13
18 19 18 18 21 20 22 25 24 20 22 18 14 11 12 20 23 32 22 14 12 17 28 23 27 28 24 18 22 20 23 19 22 22 13 9 19 14 12 12 11 13 14 12 12
18 17 18 19 18 22 25 29 24 21 18 12 8 14 20 9 31 36 29 30 28 20 21 22 17 25 24 20 19 19 18 22 19 11 13 16 19 19 6 11 13 13 13 11 11
19 19 19 19 21 23 26 28 19 15 5 8 16 6 19 19 22 21 27 33 20 20 18 17 14 19 20 19 21 20 23 20 16 14 11 16 19 19 16 15 16 17 13 11 13
18 17 18 19 19 20 22 17 5 8 24 17 15 17 6 15 13 11 19 22 22 22 24 24 18 24 32 29 24 22 20 16 12 7 14 11 17 20 20 15 18 18 13 12 14
17 17 17 19 18 19 19 11 6 6 10 28 29 26 27 7 9 18 18 18 23 25 26 22 27 27 27 27 28 25 20 19 15 15 10 14 19 21 20 21 18 16 13 10 13
19 16 16 17 19 19 20 20 6 7 9 20 29 31 28 25 23 18 25 23 25 28 29 30 26 27 26 26 26 23 20 17 17 16 11 12 23 22 15 10 13 11 6 9 14
17 16 13 13 13 15 17 13 9 4 7 18 18 26 30 25 30 29 27 26 23 30 28 27 28 26 27 26 24 22 18 19 16 15 13 14 16 15 16 9 10 13 11 10 14
18 16 12 9 19 14 7 3 6 7 8 7 28 9 20 32 8 29 38 25 29 23 25 30 27 29 25 28 25 19 17 16 13 15 18 19 11 16 10 10 6 8 12 12 14
18 16 12 13 17 20 15 6 9 9 13 9 13 16 20 33 33 10 35 27 24 27 27 30 28 24 26 22 18 20 16 15 11 11 15 18 15 15 9 4 4 3 5 13 14
19 16 15 15 13 11 15 9 8 14 16 14 18 18 25 23 33 27 31 31 27 27 28 27 32 26 18 22 22 16 13 11 12 13 13 17 11 10 14 4 5 4 3 10 13
18 17 17 19 17 11 10 12 16 22 33 6 21 21 28 23 32 31 28 29 33 29 16 23 26 29 21 25 23 22 20 12 15 13 13 11 7 5 4 2 3 3 2 10 13
15 17 20 20 19 13 6 14 21 24 22 32 14 18 26 28 17 31 30 33 34 33 26 24 27 25 25 24 25 18 21 21 20 17 11 6 7 9 6 10 8 4 4 9 14
10 9 20 20 19 14 5 24 29 26 26 23 33 20 22 28 23 33 30 33 34 35 28 16 18 23 27 19 27 23 20 19 14 17 16 13 10 4 10 5 8 7 7 12 16
9 3 12 21 18 5 8 20 29 31 31 17 21 20 26 27 28 23 28 19 35 36 32 28 18 22 26 24 26 21 20 15 15 13 11 10 8 8 6 5 2 9 11 16 17
5 3 13 28 6 3 13 29 26 32 27 18 20 22 26 25 24 29 31 31 27 32 37 33 13 17 29 26 25 26 26 22 10 18 12 12 3 10 7 5 5 9 13 17 17
3 4 4 17 7 13 19 28 28 27 29 26 19 18 24 24 22 27 30 29 19 30 34 27 17 17 22 20 24 25 23 21 19 14 15 12 12 6 10 5 7 5 13 16 17
2 2 3 3 2 11 16 21 21 21 30 22 28 18 22 23 24 18 27 27 24 21 25 23 20 26 20 25 22 25 25 25 22 16 16 16 15 13 13 12 10 6 13 17 17
3 3 2 3 10 13 16 16 20 22 20 23 23 26 24 22 19 23 21 26 21 17 21 26 26 26 26 20 25 23 26 27 27 23 21 18 18 16 10 12 12 12 13 15 19
2 3 2 10 11 9 11 15 18 20 7 18 24 23 21 19 17 18 16 17 23 21 25 22 24 24 26 26 24 27 25 26 27 25 23 22 18 14 11 10 11 14 11 16 19
3 2 3 4 6 5 8 6 10 15 18 19 22 22 24 23 17 27 21 22 23 24 24 23 20 23 22 24 26 23 28 27 24 23 22 21 20 14 10 15 7 10 11 16 19

GFSSW_925_spd_015.txt.gz
Wind_Speed
17 16 15 16 17 16 17 18 17 18 19 18 19 18 18 20 22 19 11 20 16 26 10 9 15 18 19 8 13 13 7 12 16 16 16 10 5 5 6 2 2 7 7 13 29
18 19 20 20 18 17 18 18 18 18 19 19 21 19 18 20 23 18 31 29 20 22 25 16 13 14 9 10 10 10 6 19 15 17 16 10 7 7 6 8 6 5 9 23 27
20 21 22 22 23 22 22 21 20 20 19 19 21 20 17 18 5 8 3 8 30 28 26 23 20 13 15 17 19 16 15 17 18 19 17 15 10 9 10 4 2 9 11 12 12
22 22 21 23 24 24 23 23 23 22 22 21 20 19 16 8 6 6 4 21 7 32 25 20 12 13 17 20 20 19 21 21 22 19 15 7 7 12 11 7 4 10 16 10 9
20 20 21 22 22 23 22 21 21 21 22 22 21 17 8 7 11 21 19 11 2 10 23 16 14 17 19 20 18 23 22 21 22 18 10 5 9 16 17 6 2 9 11 11 10
18 19 20 22 22 22 24 24 24 24 23 22 20 17 5 13 22 27 30 23 16 14 19 17 12 18 7 15 22 22 17 19 19 16 7 8 15 16 11 7 9 8 9 9 10
19 20 21 21 21 22 24 24 26 28 27 23 17 11 10 21 12 16 17 18 19 23 13 24 24 13 6 14 15 19 21 22 18 11 14 13 17 15 10 8 10 10 10 10 10
21 21 21 22 22 23 24 27 30 30 28 22 14 9 9 13 18 29 38 35 31 22 28 22 26 18 15 9 14 17 15 16 10 12 20 10 20 14 10 9 9 10 10 10 13
22 23 23 22 22 23 26 30 33 32 27 18 9 8 10 12 19 42 33 26 20 25 27 28 22 10 7 15 11 9 12 14 16 18 22 12 19 17 11 8 8 10 9 11 10
23 24 24 24 24 25 28 33 34 25 15 9 14 3 9 10 16 24 33 32 13 12 15 18 13 17 13 9 15 13 8 13 18 23 18 14 14 8 10 10 11 9 9 9 9
23 24 25 25 24 25 28 17 2 3 9 11 15 12 8 22 8 16 19 19 15 8 16 9 10 18 21 22 16 14 14 19 22 19 17 6 20 9 10 6 7 10 9 8 10
24 23 24 25 25 24 22 4 13 9 11 21 26 26 31 27 13 12 24 16 15 20 15 14 26 21 19 16 20 17 19 22 23 19 4 15 20 13 8 6 8 10 10 4 11
25 23 22 23 23 24 12 18 25 24 7 14 23 28 22 21 26 24 16 20 19 19 23 25 15 19 19 18 19 21 20 21 19 21 16 6 5 5 5 5 7 12 8 16 21
23 22 20 20 14 14 18 22 28 22 5 10 11 13 23 15 23 30 31 15 12 22 22 22 21 19 23 23 21 21 19 21 21 16 8 1 6 4 6 10 10 13 10 15 18
23 20 18 13 16 10 15 28 32 8 5 8 13 14 18 28 12 21 39 21 22 22 16 20 24 24 23 23 24 22 16 19 21 15 7 4 3 5 4 8 13 4 11 14 17
24 20 16 12 17 20 19 29 17 2 11 7 5 16 16 26 16 4 29 26 15 17 23 20 15 21 29 24 24 25 16 16 16 11 4 6 7 9 6 8 5 3 10 16 14
24 19 16 13 9 17 19 8 2 7 10 6 3 16 20 16 24 16 22 25 24 22 23 22 25 22 23 22 23 20 14 9 3 3 6 5 4 9 9 7 7 10 13 12 15
23 18 17 17 18 16 13 2 11 12 22 27 24 27 17 11 22 29 16 25 24 22 9 17 12 27 24 26 21 19 15 7 7 4 5 6 7 10 14 10 9 14 14 13 14
22 15 14 18 17 16 1 8 9 12 17 18 31 17 9 26 18 25 26 27 29 28 16 19 17 11 26 18 23 16 12 13 5 1 2 5 6 6 7 8 10 14 13 12 13
9 10 14 15 18 11 3 11 11 11 18 20 21 15 24 22 14 19 13 27 27 31 23 5 5 21 21 18 18 22 7 7 1 8 6 5 6 6 7 9 10 11 11 10 10
3 3 6 7 14 2 5 7 11 15 17 19 19 21 21 20 18 15 13 12 27 26 30 17 4 7 19 21 23 12 12 4 7 6 5 2 7 7 12 9 14 12 12 14 13
3 2 0 10 3 2 5 6 5 17 19 19 18 17 15 19 19 13 12 11 11 22 31 31 6 10 15 18 22 14 10 7 8 6 5 5 6 9 8 12 13 13 13 10 11
2 3 9 7 4 4 8 14 15 19 19 18 19 20 11 12 8 12 14 21 18 15 19 22 18 4 5 8 11 18 14 9 6 6 8 5 5 6 10 9 16 14 13 14 12
3 3 1 2 2 1 7 10 11 13 17 10 16 18 10 12 13 15 25 17 27 21 23 22 13 22 10 9 10 24 18 16 9 5 7 8 7 5 7 10 10 14 15 14 14
2 2 1 2 3 4 6 6 14 14 16 16 8 16 15 11 14 19 21 25 19 14 19 5 22 13 23 21 12 22 21 20 17 9 14 8 6 11 10 10 15 17 16 14 14
2 3 4 6 8 7 6 6 14 17 14 15 12 12 15 14 12 20 19 16 11 13 19 11 14 22 17 20 21 13 26 22 20 11 7 13 12 10 11 10 10 19 19 18 16
5 7 4 5 5 5 4 8 14 11 10 11 17 11 11 11 9 10 11 15 20 20 16 7 6 12 22 18 11 15 19 23 19 9 13 13 6 4 5 9 10 19 21 20 17

GFSSW_925_spd_021.txt.gz
Wind_Speed
17 17 17 18 18 17 18 18 18 18 18 19 19 20 21 21 21 18 9 19 16 14 21 7 11 12 4 5 6 4 2 6 7 6 8 2 4 5 4 4 3 6 6 6 17
19 19 19 18 18 19 20 20 20 19 19 18 19 20 21 20 20 15 32 27 30 24 14 13 6 7 4 5 5 6 5 9 9 7 8 11 3 12 6 13 7 4 6 2 29
19 20 21 21 21 20 20 20 20 20 20 19 19 20 19 14 6 10 10 3 6 25 24 18 8 7 5 5 6 7 13 21 13 14 7 9 19 12 7 12 12 10 8 7 10
18 19 20 20 21 22 23 22 21 21 20 20 19 19 18 2 9 3 15 9 6 10 21 10 6 6 6 8 10 5 10 18 23 21 10 15 14 17 19 19 18 11 9 11 13
21 20 19 19 20 20 22 22 22 20 20 19 17 16 9 5 10 14 16 7 7 13 19 9 7 8 8 5 2 6 15 16 14 15 16 16 18 19 23 19 19 9 9 16 16
23 23 22 21 21 21 21 22 23 24 22 19 16 12 4 12 14 30 39 32 20 5 11 9 9 9 4 8 5 7 8 13 11 17 16 20 17 10 17 14 12 8 12 13 15
23 24 24 25 23 23 23 25 25 24 23 20 17 15 15 24 11 12 18 16 26 25 9 20 17 6 6 6 7 7 14 17 11 11 19 15 16 21 16 10 13 10 11 14 18
26 27 27 26 26 26 26 28 30 27 24 20 15 16 12 16 23 36 36 38 32 13 21 21 17 9 4 2 7 4 3 7 6 15 14 7 26 19 18 8 14 12 11 13 14
26 27 28 27 27 29 32 34 35 33 26 19 13 12 13 13 15 44 35 20 24 25 18 8 7 7 4 7 4 2 14 15 21 10 6 7 15 10 9 8 12 15 12 11 16
24 26 27 27 27 27 31 38 28 9 4 9 14 3 10 8 10 11 18 29 8 6 4 8 5 6 5 5 13 10 8 6 17 1 8 13 13 17 16 9 14 15 11 12 14
26 27 25 25 27 26 27 17 5 2 2 8 6 7 4 21 17 6 11 16 10 5 12 9 8 19 18 21 17 8 8 9 8 4 7 8 9 15 14 7 14 15 10 12 8
26 26 26 25 24 23 22 2 4 5 11 13 20 23 38 17 9 8 22 8 9 18 10 7 30 19 16 16 16 9 9 17 18 8 7 9 14 15 12 12 8 13 13 6 5
28 27 25 25 25 14 5 11 9 16 5 11 13 10 14 15 13 10 11 7 7 15 26 28 20 16 20 16 18 18 17 15 19 2 6 8 14 12 16 5 9 9 8 6 11
26 25 25 24 13 8 9 3 23 14 5 8 6 7 7 9 13 19 11 7 8 19 19 18 21 22 17 24 17 19 16 21 18 5 6 4 5 5 8 10 7 10 7 10 7
23 24 22 17 15 7 7 22 25 3 5 2 3 4 4 13 6 16 25 11 10 10 11 12 18 24 21 21 22 18 11 9 10 6 4 9 3 7 4 8 11 11 7 6 8
26 25 22 17 12 18 18 22 3 2 8 6 4 11 3 11 18 4 13 10 7 4 9 10 9 25 25 14 19 7 4 2 4 4 12 19 7 5 7 8 7 4 1 7 10
26 25 22 16 6 1 16 7 2 5 4 1 10 16 10 9 8 10 11 17 18 12 16 6 12 3 7 15 6 7 7 2 3 5 7 7 6 15 7 9 9 9 7 8 9
27 25 17 19 17 8 3 1 6 5 11 16 15 15 6 20 8 12 10 14 23 15 10 14 11 22 12 9 12 14 14 6 6 4 4 7 7 7 8 10 8 9 8 10 11
25 14 13 7 6 8 2 6 4 3 11 11 14 7 7 14 8 12 7 7 12 20 6 12 14 2 16 6 14 9 16 12 3 2 2 4 7 9 2 5 6 7 10 10 12
17 9 8 14 7 5 1 6 4 5 10 11 6 7 12 15 9 15 5 15 10 4 3 3 5 8 19 19 18 10 10 8 5 5 4 5 4 6 4 5 3 7 8 9 8
7 4 5 4 8 1 2 4 5 7 10 5 6 8 12 13 6 7 5 8 17 18 10 4 1 3 6 16 21 8 8 5 7 6 5 2 6 7 9 9 11 9 9 12 13
4 3 15 11 1 1 1 3 8 8 6 5 5 11 12 9 6 7 7 9 11 15 9 5 5 5 13 2 20 13 12 10 9 6 6 3 7 5 9 10 14 11 10 8 9
4 2 12 5 2 1 3 4 6 5 5 3 4 3 9 8 6 2 8 11 8 14 12 8 5 5 6 2 4 23 19 17 4 3 7 9 8 3 4 6 7 11 10 9 11
2 4 2 2 2 3 3 4 4 6 9 6 7 4 8 11 6 8 13 10 15 16 14 7 4 10 12 3 5 6 21 11 16 12 10 9 3 3 5 9 6 7 7 11 12
3 2 3 4 3 4 3 4 7 7 4 4 3 2 8 8 11 10 13 12 13 15 2 3 4 6 16 21 10 3 11 21 19 14 15 12 9 9 10 10 14 11 9 11 12
1 2 3 4 7 5 3 2 4 8 3 6 4 9 6 5 8 10 12 11 5 6 6 4 4 7 7 14 21 16 4 22 21 16 11 8 8 8 9 6 7 13 14 15 15
2 2 2 3 5 3 3 6 8 12 6 7 10 6 6 8 7 8 9 8 7 4 5 6 3 10 6 8 11 15 27 9 15 17 18 10 9 8 5 13 14 11 15 18 17

GFSSW_925_spd_024.txt.gz
Wind_Speed
16 17 17 18 19 19 19 20 21 21 21 22 22 22 22 22 23 18 10 22 11 10 14 4 7 6 10 4 4 4 1 5 7 6 8 4 2 3 0 4 4 6 6 6 4
20 20 19 19 18 18 19 19 19 20 20 21 21 22 22 22 21 12 37 30 24 19 13 14 8 10 3 5 5 5 5 10 8 8 7 2 1 5 4 10 11 5 8 9 12
20 21 21 20 20 21 21 21 20 19 19 19 20 21 21 17 5 10 18 13 22 32 21 15 14 8 6 4 6 8 14 15 7 9 2 6 10 1 5 11 14 9 19 3 9
19 19 20 21 21 21 21 20 20 20 19 18 18 18 21 4 8 2 13 16 7 17 22 14 8 8 8 9 7 3 11 20 9 6 2 11 7 14 14 18 15 17 11 5 9
19 19 19 20 21 22 23 22 21 20 19 18 16 15 10 3 9 16 11 17 15 10 15 9 11 8 7 6 7 7 12 7 9 10 11 12 15 17 17 24 12 13 11 12 11
21 22 22 21 21 22 24 25 25 23 20 17 15 13 6 17 11 22 27 24 13 8 5 9 8 8 6 6 5 6 7 8 6 12 13 18 19 3 16 19 15 14 14 11 12
23 24 24 24 24 25 24 24 25 27 23 19 14 13 14 26 15 10 15 18 5 13 6 18 5 7 6 2 5 4 4 8 10 9 8 13 7 14 25 11 12 15 15 12 14
25 26 26 25 25 24 25 27 29 28 25 20 13 12 11 12 19 25 27 37 31 16 8 15 14 5 3 2 3 1 3 3 4 5 7 10 9 19 14 9 16 14 12 10 14
26 27 28 27 25 26 29 30 32 24 18 12 7 7 13 13 11 26 32 18 16 24 18 8 11 7 4 6 4 1 9 9 6 11 6 7 13 17 7 6 14 14 13 12 14
25 26 27 26 27 27 29 32 14 7 10 7 7 3 8 5 10 9 12 31 8 8 6 7 5 6 6 6 15 6 5 6 9 3 4 8 11 19 20 8 14 12 12 11 12
25 26 26 26 24 24 28 12 3 2 1 5 8 8 15 9 17 7 6 15 9 5 8 8 8 20 28 20 7 10 14 10 8 3 6 7 8 18 16 8 11 13 13 14 11
26 26 25 24 25 27 12 1 3 3 9 10 17 22 34 24 11 13 20 7 9 15 11 6 28 20 14 16 19 12 15 14 16 6 5 11 12 16 17 13 11 15 16 11 6
26 26 25 25 26 6 8 7 6 14 5 8 10 8 11 13 15 20 9 6 7 12 24 27 27 15 17 19 17 19 21 19 18 4 4 7 11 15 14 7 7 10 11 8 8
25 26 25 26 7 11 10 2 18 8 4 7 5 7 5 7 9 31 9 7 7 19 16 19 25 21 16 23 18 24 16 16 14 1 4 4 6 13 15 13 8 11 7 8 4
27 25 23 17 15 6 6 16 18 2 4 2 4 4 5 8 5 7 34 12 10 10 10 13 19 30 22 23 22 13 13 13 9 5 3 2 5 6 4 11 12 10 11 7 6
26 25 22 16 8 13 17 16 1 1 8 3 4 12 2 6 11 6 14 16 5 8 12 9 5 19 23 14 18 8 6 5 3 2 6 9 7 7 6 15 7 7 3 2 7
27 27 20 14 5 4 11 3 2 5 6 3 7 15 12 19 3 3 4 18 11 10 8 5 9 2 11 7 6 9 8 1 2 2 5 5 8 15 9 10 11 11 6 6 6
31 25 15 6 8 3 2 2 6 3 5 10 8 6 13 15 14 14 6 5 18 4 7 7 5 13 10 9 11 22 13 7 8 4 4 10 8 6 20 19 11 8 4 9 9
28 15 8 6 10 9 2 4 3 4 4 9 9 6 4 11 10 12 6 6 5 15 5 9 7 5 17 8 18 7 15 9 4 2 2 5 6 6 9 8 8 7 7 9 9
21 7 7 16 4 5 1 3 4 4 7 6 2 4 5 11 7 13 9 13 10 10 7 5 2 8 14 8 18 14 11 6 3 6 4 5 4 5 6 7 4 5 8 7 7
5 3 11 11 2 1 0 4 4 8 7 3 2 5 7 11 6 4 6 14 16 21 8 5 1 2 10 17 13 4 10 3 6 5 5 1 6 7 7 8 8 8 8 10 13
5 3 14 6 1 1 1 3 5 7 5 4 3 7 8 9 5 2 5 8 16 16 9 3 3 3 15 6 19 14 9 9 8 10 2 3 5 4 8 6 4 8 10 8 8
3 3 5 4 2 2 4 4 4 3 3 3 4 3 3 5 5 6 2 7 9 16 12 8 4 2 3 5 3 23 14 8 6 4 13 4 5 2 4 2 4 8 9 10 10
2 4 4 3 1 3 5 5 4 4 6 4 4 4 3 6 4 5 5 3 4 10 16 8 3 3 6 2 4 14 15 15 6 4 7 20 4 7 6 6 7 8 8 8 9
3 2 1 4 3 9 4 4 6 6 3 4 4 2 4 3 7 2 6 4 5 5 5 6 4 3 10 11 8 5 19 18 24 19 7 6 7 7 9 10 10 9 9 11 11
1 2 3 5 6 6 3 2 3 6 5 5 3 7 6 4 6 8 7 3 3 4 2 5 4 8 5 12 8 10 8 20 22 17 15 6 8 8 4 6 6 12 13 12 13
3 3 1 3 5 3 3 4 6 13 7 6 6 11 12 10 5 10 10 9 7 3 5 3 3 5 5 10 8 8 20 9 13 18 13 11 16 5 4 7 9 10 14 16 15

GFSSW_925_spd_027.txt.gz
Wind_Speed
15 15 16 15 15 15 15 16 16 17 16 18 19 21 23 23 25 16 13 12 7 5 9 6 10 9 9 6 5 2 6 11 8 7 7 1 4 2 1 8 6 7 9 8 10
16 15 14 14 16 17 17 16 17 17 17 15 17 19 21 20 19 13 29 27 28 18 14 16 10 15 6 7 7 9 11 14 11 10 9 6 8 9 6 13 21 13 14 9 9
17 18 18 17 16 16 19 18 17 15 16 16 16 18 18 15 7 5 4 4 9 24 22 14 12 12 10 6 11 10 19 21 18 16 5 14 15 10 13 18 22 16 19 21 18
18 18 19 19 20 19 18 17 18 17 16 14 15 15 17 3 9 8 7 7 15 13 21 19 13 11 11 16 17 13 18 23 22 16 10 16 13 17 16 26 26 21 18 20 19
20 19 20 21 21 21 21 20 19 17 17 16 13 12 8 4 9 10 13 14 10 5 18 19 21 19 17 15 18 15 20 17 20 18 17 19 19 19 24 28 24 20 19 19 19
20 20 21 22 23 23 23 23 22 21 19 16 13 10 5 12 11 20 22 23 5 5 9 16 8 15 13 13 20 9 22 23 17 16 19 19 24 10 20 26 21 22 25 23 22
21 21 22 22 22 22 23 26 27 26 22 17 13 9 14 24 14 15 14 13 6 6 8 13 18 8 5 6 14 10 15 13 12 17 13 15 20 17 25 21 19 23 22 22 20
22 23 23 23 23 23 24 27 28 28 24 18 13 8 9 11 14 23 20 20 22 22 8 9 15 14 5 1 1 9 6 14 12 17 11 10 20 14 21 15 17 18 17 18 19
23 24 25 24 23 24 27 29 28 14 11 5 5 6 11 8 10 16 19 17 9 16 14 5 9 10 6 13 9 8 12 15 11 8 6 13 18 15 11 10 17 20 20 18 19
24 25 25 24 23 24 27 30 4 3 7 7 3 4 7 3 4 13 12 18 10 10 8 11 8 11 15 14 22 18 12 10 13 9 11 16 22 15 19 13 20 20 20 18 18
23 24 24 23 24 26 26 6 2 3 2 7 7 7 18 14 13 7 4 6 13 16 17 20 12 26 30 29 15 17 21 21 14 9 7 13 18 15 20 19 19 19 19 19 19
26 25 25 24 26 19 8 3 5 3 11 15 21 23 31 17 10 15 7 9 11 19 21 11 28 32 26 19 23 24 22 23 14 12 9 16 22 18 18 21 17 18 20 18 17
26 26 26 25 25 3 10 3 5 9 5 13 10 10 9 9 14 22 13 8 11 21 30 26 39 23 22 26 25 28 29 23 20 5 9 9 18 20 23 13 16 19 17 16 14
25 24 23 23 4 11 7 4 14 5 4 6 3 5 5 6 7 17 23 11 11 22 24 22 27 21 23 28 23 27 23 23 19 9 13 2 19 16 21 21 18 18 14 14 9
26 24 21 16 13 5 5 12 14 3 5 2 4 3 1 4 15 2 21 19 21 12 17 19 17 23 26 28 27 21 14 19 16 7 12 19 13 16 7 17 22 19 14 7 3
30 28 22 8 6 11 14 13 2 3 7 2 3 10 9 8 19 8 2 20 16 19 20 19 11 25 27 16 22 15 11 11 9 11 17 19 14 21 14 21 17 15 11 2 3
32 29 15 6 3 6 5 3 3 5 6 1 5 11 8 13 10 17 12 13 15 18 18 17 17 5 14 23 21 20 15 7 8 9 13 11 13 19 10 18 17 16 8 4 7
36 14 5 2 7 3 1 2 6 1 6 11 8 11 5 9 9 20 18 7 22 12 10 15 11 21 17 16 18 28 23 11 11 9 9 15 10 9 19 26 19 17 7 6 9
26 8 6 10 9 7 2 3 3 2 5 10 13 7 4 7 7 7 12 11 4 21 8 12 15 14 19 13 24 24 18 18 14 1 3 5 6 12 16 12 12 15 10 9 11
12 5 4 13 4 5 1 4 4 6 10 6 6 4 4 11 8 4 5 6 10 13 12 7 7 13 16 20 25 19 23 12 10 13 8 5 5 10 9 14 10 9 10 10 12
5 2 5 6 3 1 2 3 5 9 9 4 4 6 8 12 8 5 6 7 6 13 14 11 7 12 18 20 23 11 22 7 10 6 6 3 5 8 16 15 14 11 11 14 15
5 2 7 10 1 1 2 3 6 6 5 5 6 9 9 6 5 4 7 6 4 9 9 6 6 5 24 11 19 22 19 21 11 8 8 2 5 1 9 1 3 8 11 14 15
5 3 5 4 4 4 7 6 4 4 8 5 4 3 3 5 5 6 3 2 6 3 6 7 6 10 9 6 13 27 20 22 6 4 14 10 2 1 2 2 4 7 12 13 15
2 4 2 3 1 7 9 5 7 9 6 8 9 8 6 5 6 6 5 4 6 4 1 8 4 9 10 8 2 22 24 21 19 12 10 16 11 15 8 6 2 6 13 13 15
3 1 1 4 3 9 8 5 9 9 6 5 2 5 10 5 11 1 6 10 4 6 2 3 3 4 14 12 7 3 21 24 24 20 15 11 22 22 14 10 0 6 13 15 16
2 2 2 4 6 10 3 2 8 9 6 8 6 13 13 8 12 16 14 4 2 2 1 1 3 8 8 7 8 8 6 19 23 23 19 11 17 18 11 2 4 10 14 17 17
2 3 3 5 3 4 3 4 9 15 9 7 12 16 15 11 6 10 13 13 14 10 4 2 2 4 13 4 5 9 14 11 14 21 20 18 16 6 9 9 8 13 16 19 18

GFSSW_925_spd_033.txt.gz
Wind_Speed
16 17 18 18 18 17 16 16 16 17 18 18 18 20 21 20 19 15 18 14 11 16 10 11 15 18 14 18 23 20 16 17 21 21 18 16 9 12 3 11 13 12 15 14 16
17 17 17 17 18 20 19 17 17 16 17 19 19 19 19 18 22 25 26 20 23 11 15 18 18 18 16 18 19 20 17 25 21 19 18 23 13 15 13 10 15 16 19 17 15
19 18 18 18 18 18 19 19 19 18 17 17 17 19 20 18 15 14 9 28 24 24 22 21 25 20 24 22 24 25 24 24 24 20 21 25 27 21 18 24 17 18 21 15 17
20 20 20 20 20 21 21 20 19 19 18 18 17 18 16 11 10 7 10 10 11 16 23 26 24 26 25 27 26 29 29 27 27 28 26 28 26 23 24 23 21 19 20 18 18
20 21 22 23 23 23 22 22 21 21 21 18 15 15 13 11 16 9 1 5 8 14 24 24 28 28 32 28 28 31 29 30 29 31 30 28 30 31 27 26 24 19 22 21 19
18 19 21 22 23 24 24 24 23 22 22 20 16 12 15 22 10 13 13 14 13 12 17 24 28 28 31 32 34 31 32 32 32 32 31 29 32 28 27 27 28 21 23 23 21
19 20 21 22 23 24 24 25 27 26 23 19 17 13 16 22 18 16 15 19 20 17 17 21 27 29 27 34 30 33 34 34 34 32 31 27 36 34 28 29 27 25 24 23 19
21 21 23 24 25 26 27 28 30 27 25 21 13 14 11 15 19 23 24 25 24 24 24 22 20 23 29 24 28 33 33 30 32 32 30 24 33 27 28 27 27 22 22 16 21
20 21 22 22 23 24 26 29 24 21 12 8 9 15 19 3 15 17 23 21 21 24 24 25 21 20 21 23 21 26 28 37 31 29 27 29 38 28 27 26 28 26 17 17 22
22 23 23 23 25 27 31 25 20 14 6 8 16 7 16 13 5 3 5 10 15 17 21 19 16 18 20 22 27 32 32 31 32 29 28 32 35 28 23 23 28 24 20 21 24
23 24 25 26 26 28 27 23 2 8 15 14 13 14 21 10 13 18 10 8 13 14 25 24 19 27 42 38 35 33 25 31 32 29 30 32 34 24 22 26 29 25 20 22 23
27 26 27 27 28 22 12 10 8 6 12 21 26 28 33 29 24 21 20 16 16 20 22 24 30 45 28 32 33 33 32 32 29 28 27 27 29 29 24 25 28 28 23 22 24
29 29 30 30 27 12 12 11 7 10 9 23 22 22 21 20 24 22 23 22 23 22 26 30 42 26 34 33 30 33 32 30 31 25 25 27 29 31 30 28 26 28 30 27 22
32 32 31 29 17 16 11 8 8 10 7 16 11 7 8 8 11 16 23 26 26 30 23 28 34 33 33 36 34 33 30 28 26 22 21 22 22 31 24 25 24 28 25 19 19
33 33 28 12 14 10 11 10 10 9 6 6 8 7 5 8 3 3 15 16 24 26 23 32 30 36 37 42 32 38 24 27 25 20 24 29 18 24 21 24 24 23 21 20 21
34 25 12 5 5 10 13 13 6 6 10 1 3 7 14 5 3 2 4 15 13 22 29 31 28 29 39 35 30 29 28 27 21 20 20 27 21 26 23 26 20 22 21 18 19
33 11 7 7 9 12 9 7 5 7 4 6 11 4 17 12 12 7 11 10 13 15 23 31 30 29 32 30 36 29 26 18 19 20 26 19 21 24 23 22 22 23 22 15 10
23 5 8 6 11 8 6 5 6 13 12 11 12 16 16 16 10 8 13 13 17 16 21 24 27 33 29 30 36 34 31 17 31 14 20 24 26 22 22 24 22 21 10 9 11
14 7 5 11 6 3 5 5 10 14 17 15 16 18 19 16 9 11 14 7 8 10 8 18 30 29 33 25 27 39 27 35 24 23 20 17 17 18 18 17 13 15 17 15 13
14 6 5 6 4 3 3 6 9 9 13 15 16 11 18 12 4 16 9 7 8 7 14 18 13 33 28 31 30 33 28 23 21 28 24 16 14 8 6 10 15 15 15 17 15
11 3 5 2 4 3 3 6 13 13 12 10 18 16 17 16 17 16 13 5 3 13 15 18 7 19 34 33 30 25 24 31 21 20 17 16 10 9 6 8 12 15 16 19 18
8 4 6 3 4 3 7 9 10 11 13 9 9 14 12 12 14 16 4 5 6 11 13 13 5 16 19 23 31 31 29 30 17 26 18 9 7 6 3 13 10 13 17 18 18
6 3 5 8 4 8 16 17 14 12 13 10 11 12 15 15 7 6 5 2 3 7 5 7 9 12 6 18 28 29 33 26 27 15 22 13 10 6 3 5 10 8 17 17 18
4 5 4 2 2 6 14 16 13 14 9 8 17 13 12 13 12 8 8 1 3 13 11 12 13 17 7 11 22 32 33 28 27 16 17 21 12 9 11 12 9 9 12 17 19
4 3 2 4 9 11 13 16 16 12 12 17 10 8 15 15 16 11 4 16 5 8 5 5 18 25 10 19 27 30 26 29 27 24 18 20 15 9 10 11 10 12 15 18 19
4 5 6 11 9 10 12 13 13 15 17 16 16 19 18 17 15 16 18 11 7 4 5 6 12 19 14 17 30 11 27 28 25 29 19 12 16 12 5 10 7 9 15 17 18
3 6 4 9 6 7 9 13 18 16 12 12 17 18 17 16 18 21 18 19 16 14 13 7 8 9 7 15 23 13 18 20 20 27 19 15 7 8 8 2 4 8 15 17 17

GFSSW_925_spd_036.txt.gz
Wind_Speed
17 18 19 19 19 18 18 18 18 18 18 19 21 21 21 21 22 17 16 16 9 22 12 6 12 18 19 18 19 19 15 16 22 23 21 18 16 14 20 3 13 10 11 13 16
18 18 18 19 19 19 19 18 18 17 17 19 20 20 21 23 24 24 27 22 23 17 14 19 16 15 15 17 18 17 16 26 21 22 21 20 17 19 15 6 12 18 17 18 18
19 19 19 19 20 21 21 21 20 19 18 18 20 21 19 22 13 11 11 30 31 29 23 20 21 17 20 21 22 22 23 24 23 23 23 23 22 23 22 18 18 19 15 15 14
21 20 20 21 21 21 22 22 22 22 20 19 18 19 18 14 8 6 12 2 28 24 19 20 18 22 24 25 24 26 30 27 28 26 26 26 25 28 25 24 17 22 17 16 12
22 23 23 23 23 23 24 23 22 22 22 22 20 17 13 11 13 13 5 2 8 14 24 22 23 23 27 25 26 29 29 29 29 27 28 28 29 28 28 25 24 24 20 21 15
22 23 24 25 25 26 27 26 26 24 24 22 18 15 14 23 12 18 16 16 13 17 23 23 23 23 24 28 29 27 29 30 30 29 28 28 29 28 26 25 24 23 21 22 22
22 23 25 26 28 29 30 30 29 28 27 22 18 14 17 23 19 20 16 15 20 21 18 22 25 24 25 30 28 30 31 30 30 30 30 26 32 29 25 25 24 27 22 22 21
21 22 23 24 26 28 30 30 30 29 25 20 15 14 12 17 16 23 24 26 28 26 25 23 24 22 23 27 31 32 32 30 28 30 34 27 32 25 25 23 24 23 21 20 18
22 23 24 25 27 29 32 35 33 21 19 12 8 13 13 12 17 19 18 24 24 24 26 25 23 19 18 21 21 29 24 33 31 29 29 29 33 26 26 25 25 20 20 18 21
24 25 26 28 30 31 36 34 27 23 13 11 16 12 20 12 13 8 4 6 15 17 19 22 15 19 18 19 24 22 30 30 28 26 28 31 29 27 24 26 24 21 16 15 22
26 27 29 29 32 32 31 17 9 4 12 17 12 13 22 16 7 10 11 12 8 14 20 21 16 24 40 30 29 27 31 33 29 27 28 26 25 28 23 21 22 20 15 17 21
31 31 31 32 33 23 18 9 14 11 16 18 26 30 37 34 27 25 22 18 15 17 18 19 28 38 22 32 31 34 32 30 29 28 24 23 26 26 22 22 20 19 17 16 19
33 36 34 31 24 14 11 16 15 15 16 30 35 30 26 27 26 23 21 22 22 22 20 23 37 22 29 30 30 31 31 28 31 25 27 24 26 25 24 25 20 19 20 15 15
32 37 28 25 11 20 14 17 17 17 9 11 11 8 14 10 18 18 24 23 24 26 22 24 26 32 30 33 30 29 28 29 28 23 20 19 19 25 20 21 20 20 17 16 16
32 34 20 10 12 14 21 21 20 6 6 8 3 5 6 11 4 6 11 16 23 22 20 34 22 27 31 37 29 34 21 27 28 25 21 23 14 29 17 17 16 13 14 16 15
33 26 15 10 9 16 18 16 11 5 5 12 15 12 12 11 15 8 7 6 11 19 20 29 26 28 29 26 32 26 26 29 26 19 19 26 19 29 19 19 17 16 17 17 13
33 17 11 11 11 16 16 9 5 4 10 7 17 12 14 9 16 8 12 12 9 14 19 24 28 31 30 29 29 31 23 17 19 17 21 17 19 23 21 19 18 18 15 14 10
29 15 12 10 15 10 9 2 3 19 21 21 16 19 16 13 14 15 11 13 13 14 12 13 19 28 24 33 27 29 25 16 25 17 19 21 26 20 21 21 19 15 10 12 16
26 14 10 4 7 5 6 3 9 15 17 18 19 15 13 16 7 15 10 17 6 6 3 7 15 27 30 29 28 30 28 31 22 21 19 16 18 30 27 20 14 7 12 14 14
19 16 13 4 5 5 3 9 13 11 14 17 9 4 17 17 7 11 8 3 10 3 7 5 14 23 27 29 33 31 21 25 19 25 24 20 22 14 11 15 12 13 9 11 16
10 5 6 1 5 4 5 7 21 15 13 8 20 15 18 18 20 10 8 8 5 5 8 9 9 18 23 26 28 24 25 23 21 18 16 15 14 12 2 9 6 9 13 12 17
8 5 7 2 4 4 8 20 21 24 13 14 11 8 16 14 13 17 15 9 5 8 11 15 7 16 23 20 21 29 25 25 19 24 17 13 15 5 2 5 5 11 15 19 17
6 8 5 4 4 9 16 20 23 15 19 17 10 12 10 11 10 4 11 5 3 3 2 6 6 11 19 17 20 20 28 24 21 11 19 17 16 7 6 8 10 10 15 19 18
5 4 5 5 3 11 15 18 19 22 13 20 18 13 9 18 13 7 9 8 7 7 3 2 7 15 11 7 15 8 24 31 26 17 19 19 9 6 7 8 5 14 19 18 17
3 4 8 7 10 13 15 16 19 13 12 15 14 19 18 18 18 14 11 18 13 6 2 2 8 18 20 13 15 21 29 29 29 24 22 19 18 13 13 11 13 11 16 17 18
5 7 7 13 11 12 15 13 18 19 20 16 13 20 20 17 15 20 19 17 13 2 0 4 4 15 14 15 10 23 31 26 29 26 27 21 14 11 11 14 15 12 14 16 17
11 9 3 9 7 7 10 14 20 18 10 19 18 18 19 19 18 20 22 22 20 17 16 15 5 8 8 6 7 18 23 22 22 25 26 17 6 18 8 8 11 13 14 15 16

GFSSW_925_spd_042.txt.gz
Wind_Speed
15 15 15 16 17 16 17 18 19 21 21 21 21 21 22 25 28 23 11 21 15 18 21 9 8 11 9 4 5 6 2 5 6 5 8 7 14 15 9 5 1 6 7 8 16
15 16 17 17 18 19 19 18 18 19 20 21 22 23 24 24 27 16 31 25 25 19 9 15 5 9 4 6 4 5 7 8 8 7 6 14 7 22 7 10 8 4 4 16 20
16 17 17 18 18 19 20 20 20 19 19 20 21 23 24 23 7 8 10 9 7 25 23 12 15 5 6 4 6 7 11 13 15 12 11 16 15 14 14 13 8 3 6 9 8
20 19 19 20 20 20 20 21 22 21 20 19 19 21 23 7 7 2 11 16 11 13 16 15 5 6 6 14 12 9 13 16 18 17 16 18 14 18 16 14 11 10 7 5 8
20 21 23 25 25 26 26 25 22 22 23 22 19 17 11 3 10 19 21 25 21 5 25 9 11 5 7 5 8 19 10 11 13 15 18 18 20 20 22 20 15 9 9 9 9
23 24 26 27 28 28 29 29 29 27 22 20 15 11 5 10 17 19 20 18 16 8 17 14 5 8 5 5 9 3 7 17 13 15 16 18 21 19 21 18 18 16 13 11 10
24 25 27 29 30 30 30 31 32 30 27 19 13 9 10 17 18 23 20 25 25 18 5 19 17 5 6 4 8 10 12 15 19 8 8 7 21 25 21 16 18 11 9 10 11
26 26 28 30 32 31 30 31 31 30 24 17 9 7 8 27 28 31 25 23 18 15 16 16 6 6 6 5 6 4 5 17 15 16 8 6 32 16 7 8 14 14 17 21 15
25 27 28 28 29 29 30 27 25 24 12 3 3 5 10 13 9 18 18 14 11 13 8 11 5 6 1 4 2 6 17 19 19 7 4 14 37 14 11 14 17 13 16 14 16
27 29 31 32 32 29 25 26 17 9 12 3 4 3 8 4 5 18 12 14 9 3 1 2 3 5 4 6 16 12 20 19 18 6 14 19 32 21 20 23 22 23 24 23 23
31 32 34 31 26 25 19 18 9 5 14 8 15 14 24 44 42 21 17 7 6 3 7 4 5 18 23 16 14 7 17 8 5 11 14 19 23 18 16 9 13 18 17 18 19
31 31 31 27 26 13 13 2 5 7 11 12 17 21 37 36 26 31 29 2 1 3 5 5 19 12 7 6 11 13 15 14 9 9 8 13 22 23 22 18 19 21 19 18 8
30 30 29 24 15 11 13 13 18 20 3 10 15 15 9 10 23 28 13 6 5 5 6 10 5 12 15 12 15 16 18 14 10 10 22 13 12 17 20 13 16 13 13 10 10
33 31 28 25 4 19 11 21 19 14 3 6 8 9 10 8 4 25 25 11 5 10 7 9 10 14 10 21 13 19 9 12 15 11 16 7 17 21 22 25 21 14 15 10 14
35 32 29 12 12 7 14 25 20 2 3 11 6 6 5 9 14 8 11 10 17 12 7 8 5 1 12 15 12 20 11 13 14 10 16 17 7 29 7 18 12 14 10 16 17
38 30 25 5 10 12 19 23 6 5 4 6 6 18 15 19 2 5 8 3 8 17 16 13 9 9 9 10 9 5 9 12 16 3 11 9 10 28 16 22 18 7 14 12 9
38 27 14 13 5 14 19 6 4 4 11 14 23 13 10 18 10 11 4 3 1 2 1 8 13 14 14 12 10 5 2 2 3 7 15 11 9 23 7 5 10 14 16 12 12
35 24 9 12 9 12 12 5 7 8 12 20 13 12 7 13 10 13 8 6 3 5 2 2 3 5 2 1 5 6 9 5 7 4 8 7 12 16 16 26 21 22 18 14 8
33 13 5 4 2 3 4 5 2 10 13 11 15 4 4 8 3 9 5 3 3 2 4 2 4 3 10 6 4 5 9 7 5 14 1 6 9 18 23 24 21 19 12 13 7
18 9 5 7 4 4 4 3 4 13 11 10 5 3 4 5 6 9 4 3 8 4 1 2 2 6 5 5 6 8 3 4 3 6 8 6 6 10 7 14 10 12 16 7 8
6 4 3 5 1 4 2 4 10 15 11 3 7 6 3 3 4 2 5 6 8 7 7 3 4 3 5 3 7 1 4 5 4 3 8 6 9 8 12 10 12 17 10 16 16
6 3 3 5 4 1 2 10 12 11 8 3 5 2 2 5 4 4 4 6 8 5 5 2 3 4 9 16 13 6 9 5 5 11 5 11 16 9 9 10 8 10 9 14 18
4 3 2 3 4 3 5 8 9 11 10 1 4 1 1 3 4 4 3 0 11 3 3 5 1 4 9 3 3 4 5 1 4 5 19 8 7 8 12 11 17 6 9 13 15
2 3 4 4 1 3 8 5 9 8 9 12 9 3 6 8 4 6 13 4 6 8 13 3 3 5 5 5 6 8 6 5 0 2 12 18 15 24 19 21 21 7 7 16 17
1 2 2 4 5 6 6 7 8 9 3 5 4 11 12 6 11 6 7 12 5 5 3 5 4 8 13 17 17 18 18 13 9 8 3 7 8 18 17 17 18 13 17 15 17
3 3 4 7 5 6 5 3 12 14 7 7 9 16 13 7 12 16 10 6 8 6 6 6 4 6 14 18 18 20 18 14 15 11 11 17 19 17 19 16 7 19 21 20 19
6 4 2 5 4 3 2 12 12 15 8 13 13 15 8 12 13 18 16 16 10 9 7 6 3 2 6 12 6 6 13 16 6 8 3 7 6 14 13 10 11 16 22 22 21

GFSSW_925_spd_045.txt.gz
Wind_Speed
15 15 16 16 17 17 18 20 20 20 20 21 21 22 23 25 29 25 9 19 15 14 23 10 2 10 5 3 4 5 3 5 6 6 5 6 5 2 5 4 6 6 4 8 12
16 16 16 17 18 18 18 19 20 22 22 21 21 21 22 25 26 16 30 22 28 21 9 11 8 8 4 4 4 5 5 10 7 10 3 6 9 8 4 3 5 5 5 1 6
16 18 19 20 20 21 21 20 20 21 21 21 21 20 22 21 6 7 9 15 12 12 23 11 12 6 6 5 6 7 9 18 8 9 3 6 8 5 8 8 7 3 11 8 2
19 19 20 21 22 22 22 22 22 21 20 20 20 19 20 6 7 1 3 11 22 18 17 12 5 6 7 11 7 4 13 15 16 11 4 14 6 10 14 12 16 14 7 8 11
20 21 23 24 25 25 25 25 24 24 22 19 16 14 9 4 11 29 28 32 19 10 12 14 11 8 10 4 5 15 7 9 18 15 10 10 17 14 19 14 13 15 15 12 11
23 24 25 26 27 28 28 28 27 27 23 20 14 8 5 10 14 17 17 20 12 9 6 16 7 5 4 6 9 2 11 15 11 10 6 12 20 15 14 19 14 11 11 11 11
25 26 26 26 29 28 26 25 27 29 22 16 10 5 8 18 24 30 31 31 31 20 5 14 19 8 7 1 5 4 7 10 10 4 7 1 23 24 18 15 16 18 17 10 10
27 28 29 30 30 29 27 24 24 25 17 7 6 6 7 27 27 31 27 27 20 17 18 19 14 4 4 1 4 4 4 14 13 11 6 7 29 11 11 14 19 12 9 9 12
27 29 29 30 29 28 27 26 23 12 8 5 7 5 10 16 9 15 13 13 8 14 13 9 5 5 3 5 3 5 16 17 9 5 8 16 30 14 15 12 16 13 14 14 15
27 29 29 29 26 24 18 19 18 5 7 3 4 2 6 14 31 33 38 15 7 5 5 7 4 5 3 9 17 10 11 11 11 4 11 15 28 12 10 13 17 17 17 19 19
28 29 29 27 22 16 15 13 7 5 4 7 10 8 19 25 32 26 11 16 11 5 9 5 6 16 23 18 2 4 9 3 8 10 14 19 24 20 15 11 17 18 18 18 11
31 29 28 25 20 10 11 2 5 8 8 11 12 12 19 16 9 21 3 3 5 3 4 3 18 12 5 7 7 6 5 3 7 8 4 10 17 10 10 13 15 18 17 16 14
30 29 25 23 17 5 14 7 16 9 2 7 7 8 7 2 7 15 5 5 2 7 4 7 7 11 6 7 7 6 11 8 5 9 17 12 18 12 12 8 12 17 10 10 9
31 29 22 22 4 15 10 16 24 4 2 5 4 6 5 7 6 6 8 6 6 9 6 5 7 6 3 11 7 11 4 5 8 5 10 2 17 18 21 23 20 19 18 9 11
34 28 21 12 12 6 10 21 21 3 3 10 5 8 14 6 14 12 24 9 8 5 5 6 1 4 10 4 6 11 10 9 11 6 4 7 5 23 8 22 17 15 17 13 18
35 28 21 2 7 13 14 24 1 4 3 6 10 13 15 10 9 9 6 1 5 4 6 5 5 4 6 5 5 1 4 7 7 3 6 8 9 24 9 20 19 21 11 16 10
35 25 8 5 4 13 19 5 4 4 8 9 12 16 15 13 9 8 11 8 4 2 2 6 13 9 5 5 4 3 4 1 1 3 10 12 9 22 6 3 5 8 9 11 11
34 9 0 5 8 13 10 5 6 4 4 9 13 15 6 10 6 13 5 2 3 3 2 1 2 7 3 11 6 5 8 4 6 4 7 6 13 16 12 23 21 19 13 10 10
23 8 2 3 4 6 4 5 2 4 11 9 14 4 4 5 4 8 6 5 3 3 3 3 3 2 3 1 7 2 4 7 3 3 2 6 10 18 20 15 14 10 9 10 9
14 10 3 3 0 5 5 4 3 8 11 6 3 5 4 7 7 6 5 4 9 8 5 3 2 3 4 3 6 6 4 3 1 5 5 6 8 12 6 19 20 15 9 11 10
5 3 3 3 1 4 2 4 7 9 10 3 3 4 4 4 4 4 4 2 6 9 6 3 1 4 3 3 3 1 3 4 3 5 4 3 6 7 12 9 5 9 11 12 10
7 2 7 2 4 1 1 7 10 7 10 4 4 4 3 4 4 3 4 3 5 3 5 4 2 3 9 8 7 4 4 3 6 7 11 1 8 8 3 7 7 9 10 9 0
4 3 5 4 2 3 5 5 4 6 9 2 4 4 1 3 4 4 5 3 4 1 0 2 0 3 7 3 3 2 4 6 1 2 11 10 9 5 8 14 12 10 9 2 4
3 4 4 4 1 1 4 4 4 8 11 6 8 2 3 4 6 6 10 7 2 5 9 4 4 6 5 5 4 5 9 6 3 4 12 20 18 18 23 17 15 16 5 5 6
3 2 1 4 3 6 3 3 6 7 4 4 4 3 7 6 11 7 4 7 6 8 1 5 5 5 8 12 15 15 14 19 15 11 5 14 17 6 15 14 16 20 7 8 10
2 3 4 5 6 4 3 3 7 12 5 5 6 14 12 9 12 19 14 8 7 5 5 4 4 4 12 16 17 17 21 19 18 18 13 14 22 11 18 12 14 16 13 13 15
4 4 1 5 4 3 4 6 13 11 6 9 14 14 9 13 11 16 16 17 16 9 6 6 2 2 5 6 10 13 16 20 15 11 9 14 9 11 6 9 11 13 13 16 18

GFSSW_925_spd_048.txt.gz
Wind_Speed
17 18 19 20 20 21 21 21 21 21 20 20 19 20 22 25 29 27 7 16 12 11 11 17 6 9 3 3 5 4 3 5 7 7 4 1 5 7 5 3 5 2 3 4 7
19 19 20 20 20 21 22 22 22 21 21 20 20 20 20 23 24 15 14 10 13 16 15 8 7 7 3 5 5 5 5 10 6 12 5 5 2 2 6 6 4 3 2 15 7
19 20 20 20 20 21 21 22 23 23 22 21 20 20 20 20 6 6 9 9 18 14 10 14 8 7 7 5 7 7 10 13 8 9 5 9 10 6 2 7 6 1 7 5 1
20 21 22 22 22 23 22 22 22 22 22 21 19 18 17 7 6 2 9 21 22 9 8 5 7 5 8 11 5 6 14 16 6 6 4 14 8 4 8 12 7 10 8 6 9
22 22 24 25 26 26 25 24 22 21 20 18 15 11 7 5 11 15 21 17 15 11 2 6 11 6 9 6 6 13 5 9 15 12 12 10 14 15 16 11 11 9 10 12 10
23 23 25 25 27 27 20 19 19 23 19 14 8 3 1 4 8 15 20 29 28 18 9 6 7 7 6 6 18 3 12 17 8 5 6 7 15 5 9 11 14 14 15 11 9
25 26 27 28 28 27 24 19 20 20 17 10 4 5 6 16 15 26 25 22 26 20 5 13 18 8 3 2 7 2 5 3 6 4 7 2 23 21 12 13 16 16 17 13 11
26 28 28 29 27 27 23 19 16 12 8 6 6 7 7 19 18 18 9 18 18 20 21 23 15 3 4 3 1 6 3 13 13 8 6 9 28 18 8 13 18 19 17 14 12
26 26 27 27 25 26 23 24 17 8 10 7 6 4 10 13 9 17 14 11 21 16 11 15 6 6 3 4 2 4 15 14 12 8 11 15 25 7 7 8 13 11 11 9 9
26 27 27 27 24 23 22 26 18 8 6 5 1 2 9 7 16 17 13 14 4 5 4 6 5 6 4 6 16 10 12 8 7 7 10 12 27 15 6 7 9 10 12 12 13
25 27 26 24 20 16 17 8 8 5 4 5 8 6 18 11 24 11 14 5 3 2 4 5 5 16 30 26 8 3 11 2 3 5 8 19 22 16 9 11 17 18 20 21 21
29 27 26 22 19 8 10 3 2 5 9 9 15 11 25 16 7 8 3 4 5 2 6 5 15 10 2 5 5 2 3 1 4 4 2 6 11 9 6 10 11 16 17 16 15
32 28 26 21 12 1 8 1 5 9 3 8 6 5 8 6 7 11 4 2 5 7 5 6 7 8 8 5 8 5 5 3 2 7 6 5 14 10 7 11 13 16 13 11 13
32 28 24 21 0 7 3 3 17 3 2 5 4 4 7 7 5 4 6 5 4 9 5 6 6 4 2 6 6 5 7 5 6 5 6 2 12 13 9 15 13 18 18 17 9
32 28 22 12 9 3 1 12 10 3 4 10 3 7 15 5 13 9 22 3 8 4 5 7 1 4 5 5 7 7 2 4 2 3 3 2 4 6 5 11 17 19 21 19 13
36 27 16 2 6 7 9 14 4 4 5 6 7 13 14 7 11 1 11 4 4 4 2 5 1 2 5 4 7 4 6 2 2 3 4 6 6 18 9 15 13 14 15 11 10
33 13 1 5 2 9 13 3 4 3 5 7 9 12 15 8 9 11 4 7 3 0 2 1 6 4 4 2 1 2 5 2 2 3 11 13 9 21 5 3 3 6 7 8 9
24 7 2 3 8 11 3 5 4 2 2 6 8 18 4 7 9 10 9 9 10 8 4 5 3 5 4 8 6 6 7 5 6 4 4 8 11 9 14 24 22 13 8 7 9
16 4 3 5 7 9 5 5 2 1 5 7 14 4 4 3 3 7 5 5 6 3 2 5 3 5 6 2 8 4 4 5 3 2 1 4 7 11 14 19 11 5 6 9 10
11 7 4 5 6 7 5 1 2 1 6 5 4 3 4 6 6 5 4 3 5 4 2 4 3 4 4 3 4 4 5 3 2 4 4 5 6 8 8 8 14 8 8 10 11
5 3 9 4 6 5 3 4 4 7 5 3 3 4 5 5 3 3 4 3 3 7 5 5 3 6 2 3 3 3 2 2 4 5 4 2 5 7 14 2 5 6 8 10 10
5 2 10 5 4 1 1 2 5 5 2 6 3 5 4 5 4 3 3 2 1 3 5 3 1 3 6 6 3 1 3 1 4 7 7 3 7 2 6 5 5 8 13 13 5
3 3 5 3 2 3 5 4 4 3 5 4 4 4 2 3 5 4 5 5 5 2 2 1 2 2 6 1 3 2 2 4 1 0 7 7 7 3 7 13 8 10 14 11 4
2 4 4 4 1 2 5 4 4 5 5 4 5 5 5 4 6 6 8 8 5 4 16 4 3 5 5 3 2 2 6 7 4 4 7 20 15 19 21 20 15 17 14 9 5
4 1 1 4 3 4 3 4 6 7 3 3 4 2 8 6 12 12 10 4 9 10 4 4 5 6 10 13 11 9 12 12 13 13 9 17 15 7 18 16 15 12 14 10 6
2 3 3 4 5 4 3 3 6 10 5 6 5 14 13 8 12 21 19 14 6 6 4 3 3 2 10 12 11 13 14 15 18 19 21 19 21 10 18 17 13 13 11 12 11
1 1 2 3 4 3 3 4 10 14 8 10 14 16 13 14 11 18 17 18 9 4 2 3 2 1 5 5 7 8 18 17 20 21 17 21 11 8 15 16 14 12 10 13 14